User: anonymous   Login
Location: Unspecified
(0.0000°N, 0.0000°E)
Time: 23:24:52
(UTC+00:00)
Language:

GALILEO 11 (268) - Orbit

View from above orbital plane
View from above orbital plane
View from above satellite
View from above satellite

Ground track
Ground track

The orbit data is extracted from the following two-line orbital elements,

1 41175U 15079B   23343.32268561  .00000068  00000-0  00000-0 0  9992
2 41175  55.3416 126.5592 0001035 343.6108  16.3596  1.70474459 49495
Epoch (UTC): 09 December 2023 07:44:40
Eccentricity: 0.0001035
inclination: 55.3416°
perigee height: 23219 km
apogee height: 23225 km
right ascension of ascending node: 126.5592°
argument of perigee: 343.6108°
revolutions per day: 1.70474459
mean anomaly at epoch: 16.3596°
orbit number at epoch: 4949

The dashed part of the orbit path shows where the satellite is in the earth's shadow,  

DLR